Buffalo, SD

9:08 PM MST on February 21, 2018 (GMT -0700)
Buffalo

Weather History for K2WX - December, 2013

Change the Weather History Date:

Thursday, December 5, 2013

  Actual Average Record
Temperature  
Mean Temperature -13 °F 23 °F  
Max Temperature -4 °F 33 °F 56 °F (2012)
Min Temperature -22 °F 13 °F -22 °F (2013)
Degree Days  
Heating Degree Days 78 42  
Month to date heating degree days 250 208  
Since 1 July heating degree days 2040 2106  
Cooling Degree Days 0 0  
Month to date cooling degree days 0 0  
Year to date cooling degree days 587 513  
Moisture  
Dew Point -18 °F    
Average Humidity 74    
Maximum Humidity 86    
Minimum Humidity 61    
Precipitation  
Precipitation 0.00 in 0.01 in 0.05 in (2007)
Month to date precipitation 0.46 0.03  
Year to date precipitation 12.61 14.26  
Sea Level Pressure  
Sea Level Pressure 30.37 in    
Wind  
Wind Speed 17 mph (WNW)    
Max Wind Speed 30 mph    
Max Gust Speed 35 mph    
T = Trace of Precipitation, MM = Missing Value Source: NWS Daily Summary

Daily Weather History Graph

Daily Weather History Graph

Search for Another Location

Airport or City:

Trip Planner

Search our weather history database for the weather conditions in past years. The results will help you decide how hot, cold, wet, or windy it might be!

Date:

Astronomy

Dec. 05, 2013 Rise Set
Actual Time 7:18 AM MST 4:10 PM MST
Civil Twilight 6:44 AM MST 4:44 PM MST
Nautical Twilight 6:07 AM MST 5:21 PM MST
Astronomical Twilight 5:31 AM MST 5:57 PM MST
Moon 9:36 AM MST (12/5) 7:39 PM MST (12/5)
Length of Visible Light 9h 59m
Length of Day
8h 51m
Waxing Crescent, 11% of the Moon is Illuminated
Dec 5
Waxing Crescent
Dec 9
First Quarter
Dec 17
Full
Dec 25
Last Quarter
Jan 1
New

Hourly Weather History & Observations

Time (MST) Temp. Windchill Dew Point Humidity Pressure Visibility Wind Dir Wind Speed Gust Speed Precip Events Conditions
12:56 AM -6.0 °F -29.6 °F -13.0 °F 72% 30.26 in - WNW 19.6 mph - N/A   Unknown
1:56 AM -7.1 °F -26.8 °F -14.1 °F 72% 30.28 in - West 12.7 mph - N/A   Unknown
2:56 AM -8.0 °F -27.1 °F -14.1 °F 75% 30.28 in - West 11.5 mph - N/A   Unknown
3:56 AM -9.9 °F -31.3 °F -16.1 °F 74% 30.28 in - WNW 13.8 mph - N/A   Unknown
4:56 AM -11.0 °F -38.4 °F -17.0 °F 75% 30.27 in - WNW 24.2 mph - N/A   Unknown
5:56 AM -13.0 °F -34.3 °F -18.9 °F 75% 30.31 in - West 12.7 mph - N/A   Unknown
6:56 AM -14.1 °F -34.7 °F -18.9 °F 79% 30.32 in - West 11.5 mph - N/A   Unknown
7:56 AM -13.0 °F -31.3 °F -18.9 °F 75% 30.33 in - West 9.2 mph - N/A   Unknown
8:56 AM -9.9 °F -34.8 °F -17.0 °F 71% 30.34 in - WNW 19.6 mph - N/A   Unknown
9:56 AM -8.0 °F -32.2 °F -15.0 °F 71% 30.36 in - WNW 19.6 mph - N/A   Unknown
10:56 AM -6.0 °F -29.0 °F -14.1 °F 68% 30.36 in - WNW 18.4 mph - N/A   Unknown
11:56 AM -4.0 °F -30.4 °F -14.1 °F 62% 30.35 in - WNW 27.6 mph 34.5 mph N/A   Unknown
12:56 PM -5.1 °F -31.0 °F -15.0 °F 62% 30.35 in - WNW 25.3 mph - N/A   Unknown
1:56 PM -6.0 °F -33.1 °F -15.0 °F 65% 30.35 in - WNW 27.6 mph - N/A   Unknown
2:56 PM -6.0 °F -31.2 °F -15.0 °F 65% 30.37 in - WNW 23.0 mph - N/A   Unknown
3:56 PM -8.0 °F -33.9 °F -16.1 °F 68% 30.39 in - WNW 23.0 mph - N/A   Unknown
4:56 PM -11.0 °F -33.5 °F -18.0 °F 71% 30.41 in - WNW 15.0 mph - N/A   Unknown
5:56 PM -13.0 °F -37.5 °F -18.9 °F 75% 30.43 in - WNW 17.3 mph - N/A   Unknown
6:56 PM -16.1 °F -35.0 °F -20.9 °F 79% 30.47 in - West 9.2 mph - N/A   Unknown
7:56 PM -17.0 °F -38.4 °F -22.0 °F 78% 30.49 in - West 11.5 mph - N/A   Unknown
8:56 PM -18.0 °F -39.7 °F -23.1 °F 78% 30.49 in - West 11.5 mph - N/A   Unknown
9:56 PM -18.9 °F -41.8 °F -24.0 °F 78% 30.50 in - WNW 12.7 mph - N/A   Unknown
10:56 PM -22.0 °F -42.3 °F -26.0 °F 82% 30.51 in - West 9.2 mph - N/A   Unknown
11:56 PM -20.0 °F -43.2 °F -25.1 °F 78% 30.50 in - WNW 12.7 mph - N/A   Unknown